DW1937 Weather Reports


time (UTC)temp
C
wind
direction
speed
KPH
gust
KPH
rain 1hr
cm
rain 24hr
cm
rain mn
cm
humidity
%
barometer
mb
20260507191536 30 21 1.6 8.0 0.00 0.00 0.00 74 1014.2
20260507190036 30 53 1.6 6.4 0.00 0.00 0.00 74 1014.5
20260507184534 30 169 3.2 11.3 0.00 0.00 0.00 74 1014.6
20260507183039 30 224 1.6 11.3 0.00 0.00 0.00 74 1014.7
20260507181533 29 275 3.2 14.5 0.00 0.00 0.00 76 1014.9
20260507180032 30 214 0.0 11.3 0.00 0.00 0.00 75 1015.0
20260507174532 30 4 3.2 8.0 0.00 0.00 0.00 74 1015.3
20260507173041 30 87 3.2 12.9 0.00 0.00 0.00 74 1015.6
20260507171530 30 240 1.6 9.7 0.00 0.00 0.00 74 1015.7
20260507170030 30 258 1.6 9.7 0.00 0.00 0.00 74 1015.7
20260507164528 30 193 3.2 9.7 0.00 0.00 0.00 73 1015.8
20260507163028 29 45 3.2 8.0 0.00 0.00 0.00 73 1016.0
20260507161527 30 200 3.2 8.0 0.00 0.00 0.00 74 1016.2
20260507160026 29 221 0.0 11.3 0.00 0.00 0.00 74 1016.1
20260507154528 29 323 1.6 9.7 0.00 0.00 0.00 75 1016.1
20260507153023 29 320 1.6 8.0 0.00 0.00 0.00 75 1016.1
20260507151522 29 51 3.2 8.0 0.00 0.00 0.00 75 1016.2
20260507150022 29 211 1.6 6.4 0.00 0.00 0.00 75 1016.2
20260507144523 28 71 1.6 11.3 0.00 0.00 0.00 75 1016.2
20260507143020 29 37 3.2 8.0 0.00 0.00 0.00 74 1016.1
20260507141520 29 62 3.2 9.7 0.00 0.00 0.00 75 1016.0
20260507140018 29 240 0.0 8.0 0.00 0.00 0.00 76 1016.2
20260507134517 28 134 1.6 6.4 0.00 0.00 0.00 76 1016.0
20260507133016 28 211 1.6 6.4 0.00 0.00 0.00 75 1015.8
20260507131515 28 70 1.6 6.4 0.00 0.00 0.00 75 1015.8
20260507130011 28 93 1.6 4.8 0.00 0.00 0.00 77 1015.6
20260507124510 28 195 1.6 4.8 0.00 0.00 0.00 78 1015.5
20260507123007 27 174 1.6 4.8 0.00 0.00 0.00 79 1015.6
20260507121505 27 210 0.0 3.2 0.00 0.00 0.00 81 1015.4
20260507120001 26 179 0.0 3.2 0.00 0.00 0.00 81 1015.3
20260507114600 26 179 1.6 4.8 0.00 0.00 0.00 82 1015.2
20260507113057 26 207 0.0 4.8 0.00 0.00 0.00 83 1015.1
20260507111557 26 219 1.6 6.4 0.00 0.00 0.00 83 1014.8
20260507110056 25 167 1.6 4.8 0.00 0.00 0.00 83 1014.6
20260507104558 25 207 1.6 4.8 0.00 0.00 0.00 83 1014.3
20260507103102 25 219 1.6 4.8 0.00 0.00 0.00 83 1014.2
20260507101554 25 186 0.0 3.2 0.00 0.00 0.00 82 1014.2
20260507100052 25 209 0.0 3.2 0.00 0.00 0.00 82 1014.0
20260507094552 25 190 0.0 4.8 0.00 0.00 0.00 82 1014.0
20260507093058 25 281 0.0 3.2 0.00 0.00 0.00 81 1014.0
20260507091556 25 151 0.0 4.8 0.00 0.00 0.00 81 1013.9
20260507090049 25 202 0.0 3.2 0.00 0.00 0.00 81 1013.7
20260507084550 25 210 0.0 4.8 0.00 0.00 0.00 81 1013.8
20260507083049 25 205 1.6 4.8 0.00 0.00 0.00 81 1013.8
20260507081546 25 214 0.0 3.2 0.00 0.00 0.00 81 1013.9
20260507080045 26 164 0.0 6.4 0.00 0.00 0.00 81 1014.0
20260507074545 26 222 0.0 4.8 0.00 0.00 0.00 81 1014.1
20260507073043 25 203 1.6 4.8 0.00 0.00 0.00 80 1014.0
20260507071541 26 195 0.0 6.4 0.00 0.00 0.00 81 1014.2
20260507070043 26 174 1.6 6.4 0.00 0.00 0.00 80 1014.3
20260507064538 26 201 0.0 1.6 0.00 0.00 0.00 81 1014.4
20260507063045 26 210 0.0 8.0 0.00 0.00 0.00 81 1014.7
20260507061536 26 38 1.6 6.4 0.00 0.00 0.00 80 1014.7
20260507060049 26 41 0.0 4.8 0.00 0.00 0.00 80 1014.7
20260507054544 26 33 1.6 4.8 0.00 0.00 0.00 80 1014.8
20260507053031 26 216 1.6 4.8 0.00 0.00 0.00 80 1014.9
20260507051530 26 187 1.6 6.4 0.00 0.00 0.00 79 1015.2
20260507050027 26 13 0.0 8.0 0.00 0.00 0.00 79 1015.3
20260507044545 26 68 3.2 9.7 0.00 0.00 0.00 79 1015.5
20260507043026 26 57 1.6 8.0 0.00 0.00 0.00 79 1015.5
20260507041525 26 4 3.2 9.7 0.00 0.00 0.00 78 1015.6
20260507040029 26 55 1.6 4.8 0.00 0.00 0.00 78 1015.6
20260507034522 26 83 1.6 8.0 0.00 0.00 0.00 78 1015.5
20260507033022 26 152 3.2 9.7 0.00 0.00 0.00 77 1015.7
20260507031521 26 66 1.6 9.7 0.00 0.00 0.00 78 1015.6
20260507030021 26 89 3.2 8.0 0.00 0.00 0.00 78 1015.5
20260507024521 26 82 1.6 4.8 0.00 0.00 0.00 79 1015.5
20260507023021 26 63 1.6 6.4 0.00 0.00 0.00 79 1015.4
20260507021522 26 53 1.6 6.4 0.00 0.00 0.00 79 1015.4
20260507020026 26 82 1.6 4.8 0.00 0.00 0.00 79 1015.4
20260507014519 26 59 0.0 4.8 0.00 0.00 0.00 79 1015.3
20260507013019 26 64 0.0 4.8 0.00 0.00 0.00 79 1015.3
20260507011519 26 25 0.0 4.8 0.00 0.00 0.00 78 1015.2
20260507010025 26 49 0.0 0.0 0.00 0.00 0.00 78 1015.3
20260507004516 26 49 0.0 3.2 0.00 0.00 0.00 77 1015.3
20260507003021 26 48 0.0 3.2 0.00 0.00 0.00 76 1015.3
20260507001523 27 77 0.0 3.2 0.00 0.00 0.00 76 1015.1
20260507000015 27 63 0.0 3.2 0.00 0.00 0.00 75 1015.1
20260506234514 28 198 0.0 4.8 0.00 0.00 0.00 73 1014.9
20260506233014 28 274 0.0 6.4 0.00 0.00 0.00 73 1014.9
20260506231513 28 127 0.0 6.4 0.00 0.00 0.00 73 1014.9
20260506230011 28 101 1.6 6.4 0.00 0.00 0.00 70 1015.0
20260506224512 28 186 1.6 4.8 0.00 0.00 0.00 71 1014.8
20260506223012 28 92 3.2 8.0 0.00 0.00 0.00 73 1014.6
20260506221511 28 72 3.2 6.4 0.00 0.00 0.00 73 1014.6
20260506220010 28 25 1.6 8.0 0.00 0.00 0.00 73 1014.6
20260506214510 28 54 3.2 11.3 0.00 0.00 0.00 71 1014.6
20260506213011 29 39 1.6 8.0 0.00 0.00 0.00 71 1014.6
20260506211508 29 215 1.6 6.4 0.00 0.00 0.00 71 1014.5
20260506210007 29 27 3.2 9.7 0.00 0.00 0.00 71 1014.5
20260506204507 30 212 3.2 8.0 0.00 0.00 0.00 68 1014.6
20260506203006 30 257 1.6 9.7 0.00 0.00 0.00 70 1014.8
20260506201508 30 222 4.8 8.0 0.00 0.00 0.00 69 1014.8
20260506200005 29 39 1.6 9.7 0.00 0.00 0.00 70 1014.9
20260506194505 30 218 1.6 6.4 0.00 0.00 0.00 69 1015.1
20260506193006 30 214 3.2 8.0 0.00 0.00 0.00 69 1015.2